Location: Unspecified
(0.0000°N, 0.0000°E)
Time: 18:11:40
(UTC+02:00)

Cosmos 1072 Rocket - Visible Passes

Search period start: 30 July 2015 00:00
Search period end: 09 August 2015 00:00
Orbit: 948 x 1009 km, 82.9° (Epoch: 29 July)

Date Brightness Start Highest point End Pass type
(mag) Time Alt. Az. Time Alt. Az. Time Alt. Az.
30 Jul 4.9 21:28:39 10° S 21:35:02 68° W 21:41:20 10° N visible
31 Jul 6.3 21:55:49 10° SSW 22:01:24 31° W 22:06:47 10° NNW visible
01 Aug 4.8 20:36:22 10° SSE 20:42:29 49° E 20:48:35 10° NNE visible
01 Aug 7.4 22:24:52 10° WSW 22:27:54 13° W 22:30:22 10° WNW visible
02 Aug 4.7 21:02:25 10° S 21:08:50 78° W 21:15:10 10° N visible
03 Aug 6.2 21:29:24 10° SSW 21:35:12 35° W 21:40:48 10° NNW visible
04 Aug 7.3 21:57:56 10° WSW 22:01:40 15° W 22:04:54 10° NW visible
05 Aug 7.4 07:32:59 10° NE 07:36:29 17° E 07:40:24 10° SE visible
05 Aug 4.6 20:36:13 10° S 20:42:38 88° W 20:48:58 10° N visible
06 Aug 6.0 21:03:02 10° SSW 21:08:59 40° W 21:14:46 10° NNW visible
07 Aug 7.3 21:31:11 10° SW 21:35:26 18° W 21:39:14 10° NW visible
08 Aug 7.5 07:07:23 10° ENE 07:10:14 14° E 07:13:35 10° ESE visible
